Weather in Komsomolskiy

Russia / Tver Oblast     57°39′21″N   33°52′44″E
temp.,
°C
wind,
m/s
gust,
m/s
humid.,
%
clouds,
%
prec.,
mm/h
press.,
hPa
HPBL,
m
5 march, fri
fri500:00−5nw379250 0.1 1004574
03:00−7wnw259573 0.1 1005287
06:00−8wnw399488 0.1 1006393
09:00−7wnw488780 0.1 1008634
12:00−4nw4671100 0.1 10091052
15:00−4nw4665100 0.4 10111215
18:00−6wnw3880100 0.3 1012379
21:00−8wnw289372 0.3 1014236
6 march, sat
sat600:00−9wnw269331 0.0 1015196
03:00−9wnw259650 0.0 1017169
06:00−8nw249699 0.2 1017187
09:00−8wnw259189 0.3 1017308
12:00−5wnw357494 0.1 1016944
15:00−4w466697 0.1 10141220
18:00−5sw3107373 0.0 1012577
21:00−5sw6137585 0.0 10081054
7 march, sun
sun700:00−4sw71587100 0.3 10031227
03:00−4sw71691100 1.2 9981274
06:00−3sw71591100 1.1 9921130
09:00−5nw51090100 3.3 990834
12:00−7nw71183100 1.9 9921227
15:00−4w595784 1.9 9931593
18:00−5w3981100 0.8 9921143
21:00−7w2795100 0.9 992304
8 march, mon
mon800:00−9nw51090100 0.1 994618
03:00−9nnw4987100 0.7 996788
06:00−11wnw4128497 0.0 998587
09:00−9nw6118899 0.2 1000841
12:00−9nnw5982100 0.1 1003862
15:00−8nw5880100 0.3 1006960
18:00−11nnw5986100 0.1 1008818
21:00−14nnw4991100 0.2 1012634
9 march, tue
tue900:00−15nnw3894100 0.1 1014479
03:00−17nw3796100 0.1 1015340
06:00−19nw269795 0.0 1017242
09:00−17nw249164 0.0 1018233
12:00−11w237281 0.0 1017505
15:00−9wsw126889 0.0 1016709
18:00−10se1289100 0.1 1014191
21:00−11e4793100 0.4 1015397